SAS717 LIPZ-LEBL

Flight info

Callsign SAS717
Flight time 1h 46m
Altitude 35000
Route CHI M859 ROVIG DCT LUMAV DCT ABMOG DCT GOLAS DCT GEKBA DCT VAMTU DCT KOLON DCT GANGU DCT PADKO DCT DIVKO DCT NILDU DCT BISBA
Aircraft B736/M-SDE2E3FGHIRWXY/LB1

Departure

Time 2026-05-05 16:05
Airport Venice Marco Polo Airport (LIPZ)

Arrival

Time 2026-05-05 17:51
Airport Josep Tarradellas Barcelona-El Prat Airport (LEBL)
Time Latitude Longitude Altitude Speed Heading
2026-05-05 15:58 45.49850 12.33783 16 ft 8 kts 222°
2026-05-05 15:58 45.49808 12.33730 16 ft 8 kts 222°
2026-05-05 15:58 45.49767 12.33680 15 ft 8 kts 215°
2026-05-05 15:59 45.49721 12.33643 15 ft 7 kts 208°
2026-05-05 15:59 45.49677 12.33607 16 ft 7 kts 212°
2026-05-05 15:59 45.49636 12.33568 15 ft 7 kts 222°
2026-05-05 15:59 45.49600 12.33523 15 ft 7 kts 214°
2026-05-05 16:00 45.49555 12.33528 16 ft 7 kts 140°
2026-05-05 16:00 45.49526 12.33580 16 ft 7 kts 129°
2026-05-05 16:00 45.49497 12.33631 16 ft 7 kts 129°
2026-05-05 16:00 45.49464 12.33682 15 ft 8 kts 133°
2026-05-05 16:01 45.49429 12.33750 15 ft 10 kts 111°
2026-05-05 16:01 45.49457 12.33835 14 ft 11 kts 40°
2026-05-05 16:01 45.49479 12.33863 14 ft 0 kts 42°
2026-05-05 16:04 45.49504 12.33895 14 ft 23 kts 41°
2026-05-05 16:04 45.49844 12.34326 13 ft 105 kts 42°
2026-05-05 16:04 45.50577 12.35221 42 ft 166 kts 40°
2026-05-05 16:05 45.51392 12.36334 1023 ft 150 kts 45°
2026-05-05 16:05 45.52181 12.37269 1909 ft 150 kts 46°
2026-05-05 16:05 45.52988 12.38415 2332 ft 183 kts 48°
2026-05-05 16:05 45.53767 12.39992 2823 ft 207 kts 76°
2026-05-05 16:06 45.53739 12.42017 3692 ft 208 kts 103°
2026-05-05 16:06 45.53461 12.44086 4538 ft 217 kts 103°
2026-05-05 16:06 45.53190 12.46229 5396 ft 223 kts 102°
2026-05-05 16:06 45.52907 12.48454 6159 ft 233 kts 102°
2026-05-05 16:07 45.52586 12.50759 6961 ft 238 kts 110°
2026-05-05 16:07 45.51742 12.52721 7814 ft 231 kts 144°
2026-05-05 16:07 45.50334 12.53755 8449 ft 236 kts 175°
2026-05-05 16:07 45.48618 12.53732 8732 ft 261 kts 191°
2026-05-05 16:08 45.46774 12.53305 9405 ft 273 kts 193°
2026-05-05 16:08 45.44903 12.52818 10310 ft 278 kts 194°
2026-05-05 16:08 45.42923 12.52304 10669 ft 304 kts 193°
2026-05-05 16:08 45.40732 12.51754 10878 ft 332 kts 193°
2026-05-05 16:09 45.38370 12.51183 11214 ft 350 kts 192°
2026-05-05 16:09 45.35959 12.50641 11546 ft 353 kts 192°
2026-05-05 16:09 45.33552 12.50016 11697 ft 356 kts 199°
2026-05-05 16:09 45.31345 12.48499 11962 ft 352 kts 213°
2026-05-05 16:10 45.29248 12.46674 12705 ft 353 kts 213°
2026-05-05 16:10 45.27140 12.44858 13562 ft 357 kts 213°
2026-05-05 16:10 45.24985 12.43025 14306 ft 362 kts 213°
2026-05-05 16:10 45.22815 12.41197 15198 ft 362 kts 213°
2026-05-05 16:11 45.20636 12.39374 16088 ft 364 kts 213°
2026-05-05 16:11 45.13975 12.33818 18368 ft 375 kts 213°
2026-05-05 16:12 45.11742 12.31959 19008 ft 379 kts 213°
2026-05-05 16:12 45.07320 12.27797 20179 ft 385 kts 227°
2026-05-05 16:13 45.03163 12.18026 22077 ft 392 kts 243°
2026-05-05 16:13 45.01892 12.14600 22636 ft 396 kts 243°
2026-05-05 16:13 45.00592 12.11137 23221 ft 400 kts 243°
2026-05-05 16:14 44.97925 12.04139 24261 ft 407 kts 242°
2026-05-05 16:14 44.95210 11.97083 25276 ft 411 kts 242°
2026-05-05 16:15 44.92479 11.90007 26294 ft 415 kts 242°
2026-05-05 16:15 44.89694 11.82837 27292 ft 418 kts 242°
2026-05-05 16:16 44.86870 11.75595 28089 ft 424 kts 241°
2026-05-05 16:16 44.84008 11.68265 28950 ft 428 kts 241°
2026-05-05 16:17 44.81390 11.60799 30217 ft 422 kts 249°
2026-05-05 16:17 44.80593 11.56833 30788 ft 420 kts 257°
2026-05-05 16:18 44.79437 11.48935 32150 ft 407 kts 257°
2026-05-05 16:18 44.78860 11.45072 32907 ft 399 kts 257°
2026-05-05 16:18 44.77723 11.37605 34436 ft 382 kts 257°
2026-05-05 16:19 44.77158 11.33939 34760 ft 384 kts 256°
2026-05-05 16:19 44.76586 11.30248 34923 ft 389 kts 256°
2026-05-05 16:19 44.75430 11.22812 34980 ft 390 kts 256°
2026-05-05 16:20 44.73094 11.07861 34980 ft 393 kts 256°
2026-05-05 16:22 44.69988 10.89168 34984 ft 393 kts 254°
2026-05-05 16:23 44.67401 10.75551 34974 ft 391 kts 255°
2026-05-05 16:23 44.65326 10.64524 34982 ft 387 kts 255°
2026-05-05 16:24 44.63961 10.57276 34987 ft 385 kts 254°
2026-05-05 16:25 44.61904 10.46401 34986 ft 383 kts 254°
2026-05-05 16:25 44.59845 10.35580 34986 ft 382 kts 254°
2026-05-05 16:26 44.57096 10.21221 34999 ft 382 kts 254°
2026-05-05 16:27 44.55711 10.14034 34981 ft 382 kts 254°
2026-05-05 16:27 44.54323 10.06851 34962 ft 381 kts 253°
2026-05-05 16:28 44.52932 9.99682 34971 ft 381 kts 253°
2026-05-05 16:28 44.51546 9.92561 34970 ft 381 kts 253°
2026-05-05 16:29 44.50145 9.85395 34957 ft 383 kts 253°
2026-05-05 16:29 44.48736 9.78206 34972 ft 381 kts 253°
2026-05-05 16:30 44.47331 9.71065 34973 ft 378 kts 253°
2026-05-05 16:30 44.45931 9.63981 34959 ft 376 kts 253°
2026-05-05 16:31 44.44987 9.56780 34963 ft 377 kts 260°
2026-05-05 16:31 44.44328 9.49479 34965 ft 379 kts 260°
2026-05-05 16:32 44.43661 9.42189 34962 ft 382 kts 259°
2026-05-05 16:32 44.42971 9.34799 34939 ft 383 kts 259°
2026-05-05 16:33 44.42270 9.27417 34974 ft 384 kts 259°
2026-05-05 16:33 44.41559 9.19996 34954 ft 385 kts 259°
2026-05-05 16:34 44.40843 9.12568 34956 ft 386 kts 259°
2026-05-05 16:34 44.40121 9.05145 34975 ft 385 kts 259°
2026-05-05 16:35 44.39396 8.97720 34965 ft 384 kts 259°
2026-05-05 16:35 44.38677 8.90395 34954 ft 382 kts 258°
2026-05-05 16:36 44.37953 8.83072 34962 ft 379 kts 258°
2026-05-05 16:36 44.37227 8.75789 34963 ft 378 kts 258°
2026-05-05 16:37 44.36498 8.68527 34974 ft 377 kts 258°
2026-05-05 16:37 44.35763 8.61258 34963 ft 378 kts 258°
2026-05-05 16:38 44.35021 8.53973 34960 ft 379 kts 258°
2026-05-05 16:38 44.34272 8.46657 34954 ft 380 kts 258°
2026-05-05 16:39 44.33516 8.39317 34950 ft 382 kts 258°
2026-05-05 16:39 44.32753 8.31954 34949 ft 384 kts 257°
2026-05-05 16:40 44.31988 8.24621 34945 ft 384 kts 257°
2026-05-05 16:40 44.31213 8.17234 34936 ft 383 kts 257°
2026-05-05 16:41 44.30435 8.09879 34942 ft 382 kts 257°
2026-05-05 16:41 44.29657 8.02539 34962 ft 382 kts 257°
2026-05-05 16:42 44.28872 7.95220 34957 ft 382 kts 257°
2026-05-05 16:42 44.28087 7.87922 34946 ft 382 kts 257°
2026-05-05 16:43 44.26923 7.80767 34942 ft 375 kts 244°
2026-05-05 16:43 44.24228 7.74581 34928 ft 374 kts 230°
2026-05-05 16:44 44.20401 7.69638 34949 ft 376 kts 223°
2026-05-05 16:44 44.16437 7.64782 34929 ft 380 kts 224°
2026-05-05 16:45 44.12753 7.59629 34942 ft 373 kts 230°
2026-05-05 16:45 44.09378 7.54172 34930 ft 371 kts 230°
2026-05-05 16:46 44.06010 7.48773 34937 ft 368 kts 229°
2026-05-05 16:46 44.02651 7.43417 34949 ft 368 kts 229°
2026-05-05 16:47 43.99277 7.38045 34934 ft 370 kts 230°
2026-05-05 16:47 43.95885 7.32654 34944 ft 371 kts 229°
2026-05-05 16:48 43.92473 7.27247 34939 ft 373 kts 229°
2026-05-05 16:48 43.89050 7.21829 34954 ft 373 kts 229°
2026-05-05 16:49 43.85646 7.16449 34974 ft 372 kts 229°
2026-05-05 16:49 43.82218 7.11042 34942 ft 373 kts 229°
2026-05-05 16:50 43.78794 7.05654 34954 ft 372 kts 229°
2026-05-05 16:50 43.75376 7.00283 34957 ft 371 kts 229°
2026-05-05 16:51 43.72253 6.94679 34947 ft 371 kts 237°
2026-05-05 16:51 43.70062 6.88214 34951 ft 372 kts 245°
2026-05-05 16:52 43.68124 6.81555 34952 ft 374 kts 245°
2026-05-05 16:52 43.66171 6.74881 34932 ft 375 kts 245°
2026-05-05 16:53 43.64208 6.68229 34914 ft 376 kts 245°
2026-05-05 16:53 43.62225 6.61543 34916 ft 375 kts 244°
2026-05-05 16:54 43.60247 6.54895 34928 ft 374 kts 244°
2026-05-05 16:54 43.58264 6.48251 34918 ft 374 kts 244°
2026-05-05 16:55 43.56279 6.41615 34913 ft 375 kts 244°
2026-05-05 16:55 43.54301 6.35019 34911 ft 374 kts 244°
2026-05-05 16:56 43.52308 6.28389 34918 ft 375 kts 244°
2026-05-05 16:56 43.50304 6.21741 34906 ft 376 kts 244°
2026-05-05 16:57 43.48294 6.15085 34907 ft 376 kts 244°
2026-05-05 16:57 43.46292 6.08477 34905 ft 375 kts 244°
2026-05-05 16:58 43.44276 6.01836 34928 ft 373 kts 244°
2026-05-05 16:58 43.42284 5.95285 34920 ft 373 kts 244°
2026-05-05 16:59 43.40277 5.88700 34900 ft 374 kts 244°
2026-05-05 16:59 43.38263 5.82105 34903 ft 373 kts 244°
2026-05-05 17:00 43.36245 5.75513 34921 ft 373 kts 244°
2026-05-05 17:00 43.34225 5.68936 34955 ft 374 kts 244°
2026-05-05 17:01 43.32188 5.62319 34932 ft 377 kts 244°
2026-05-05 17:01 43.30138 5.55671 34917 ft 378 kts 244°
2026-05-05 17:02 43.28094 5.49061 34905 ft 374 kts 244°
2026-05-05 17:02 43.26082 5.42566 34905 ft 371 kts 243°
2026-05-05 17:03 43.24055 5.36049 34911 ft 371 kts 243°
2026-05-05 17:03 43.22022 5.29542 34916 ft 372 kts 243°
2026-05-05 17:04 43.19964 5.23000 34914 ft 375 kts 243°
2026-05-05 17:04 43.17906 5.16466 34912 ft 377 kts 243°
2026-05-05 17:05 43.15820 5.09857 34912 ft 377 kts 243°
2026-05-05 17:05 43.13729 5.03247 34902 ft 378 kts 243°
2026-05-05 17:06 43.11632 4.96634 34890 ft 378 kts 243°
2026-05-05 17:06 43.09546 4.90068 34905 ft 379 kts 243°
2026-05-05 17:07 43.07445 4.83477 34901 ft 377 kts 243°
2026-05-05 17:07 43.04775 4.77385 34931 ft 373 kts 231°
2026-05-05 17:08 43.01181 4.72259 34904 ft 375 kts 223°
2026-05-05 17:08 42.97923 4.68345 34899 ft 374 kts 222°
2026-05-05 17:09 42.94010 4.63673 34893 ft 373 kts 222°
2026-05-05 17:09 42.90110 4.58998 34892 ft 372 kts 222°
2026-05-05 17:10 42.86217 4.54322 34898 ft 375 kts 222°
2026-05-05 17:10 42.82292 4.49609 34892 ft 376 kts 222°
2026-05-05 17:11 42.78370 4.44909 34893 ft 375 kts 222°
2026-05-05 17:11 42.74455 4.40224 34893 ft 374 kts 222°
2026-05-05 17:12 42.70542 4.35550 34892 ft 374 kts 222°
2026-05-05 17:12 42.66651 4.30909 34892 ft 374 kts 222°
2026-05-05 17:13 42.62735 4.26248 34888 ft 374 kts 222°
2026-05-05 17:13 42.58816 4.21590 34891 ft 374 kts 222°
2026-05-05 17:14 42.54896 4.16940 34895 ft 375 kts 222°
2026-05-05 17:14 42.50985 4.12308 34892 ft 374 kts 222°
2026-05-05 17:15 42.47053 4.07661 34900 ft 375 kts 222°
2026-05-05 17:15 42.43109 4.03006 34895 ft 375 kts 222°
2026-05-05 17:16 42.39163 3.98356 34899 ft 375 kts 222°
2026-05-05 17:16 42.35220 3.93719 34604 ft 372 kts 222°
2026-05-05 17:17 42.33266 3.91423 33890 ft 371 kts 222°
2026-05-05 17:17 42.31287 3.89098 32963 ft 393 kts 222°
2026-05-05 17:17 42.29217 3.86669 32643 ft 386 kts 222°
2026-05-05 17:17 42.27229 3.84344 32275 ft 373 kts 222°
2026-05-05 17:18 42.25277 3.82061 31607 ft 368 kts 222°
2026-05-05 17:18 42.23345 3.79801 30686 ft 369 kts 223°
2026-05-05 17:18 42.21389 3.77513 29590 ft 374 kts 223°
2026-05-05 17:18 42.19430 3.75224 28709 ft 371 kts 222°
2026-05-05 17:19 42.17489 3.72958 27917 ft 367 kts 222°
2026-05-05 17:19 42.15559 3.70706 27154 ft 365 kts 222°
2026-05-05 17:19 42.13646 3.68475 26356 ft 360 kts 222°
2026-05-05 17:19 42.11809 3.66337 25463 ft 349 kts 222°
2026-05-05 17:20 42.10004 3.64239 25095 ft 329 kts 222°
2026-05-05 17:20 42.08314 3.62246 24792 ft 319 kts 224°
2026-05-05 17:20 42.06744 3.60158 24496 ft 319 kts 226°
2026-05-05 17:20 42.05166 3.57938 24195 ft 335 kts 227°
2026-05-05 17:21 42.03541 3.55627 23850 ft 343 kts 227°
2026-05-05 17:21 42.01899 3.53296 23506 ft 342 kts 227°
2026-05-05 17:21 42.00265 3.50988 23115 ft 339 kts 226°
2026-05-05 17:22 41.97020 3.46435 22388 ft 336 kts 226°
2026-05-05 17:22 41.95417 3.44196 22059 ft 334 kts 226°
2026-05-05 17:22 41.93800 3.41942 21724 ft 333 kts 226°
2026-05-05 17:22 41.92194 3.39707 21400 ft 331 kts 226°
2026-05-05 17:23 41.90597 3.37486 21063 ft 330 kts 226°
2026-05-05 17:23 41.89003 3.35271 20737 ft 329 kts 226°
2026-05-05 17:23 41.87413 3.33064 20413 ft 328 kts 226°
2026-05-05 17:23 41.85845 3.30889 20090 ft 328 kts 226°
2026-05-05 17:24 41.84258 3.28688 19771 ft 328 kts 226°
2026-05-05 17:24 41.82669 3.26488 19448 ft 328 kts 226°
2026-05-05 17:24 41.81078 3.24286 19122 ft 328 kts 226°
2026-05-05 17:24 41.79489 3.22088 18800 ft 328 kts 226°
2026-05-05 17:25 41.77902 3.19894 18477 ft 328 kts 226°
2026-05-05 17:25 41.76846 3.18437 18262 ft 328 kts 226°
2026-05-05 17:25 41.74749 3.15542 17806 ft 323 kts 226°
2026-05-05 17:25 41.73187 3.13387 17435 ft 320 kts 226°
2026-05-05 17:26 41.71646 3.11263 17107 ft 316 kts 226°
2026-05-05 17:26 41.70111 3.09148 16796 ft 317 kts 226°
2026-05-05 17:26 41.68591 3.07057 16481 ft 317 kts 226°
2026-05-05 17:26 41.67043 3.04929 16195 ft 318 kts 226°
2026-05-05 17:27 41.65446 3.02870 15837 ft 320 kts 218°
2026-05-05 17:27 41.63515 3.01403 15406 ft 324 kts 207°
2026-05-05 17:27 41.61460 3.00152 14898 ft 325 kts 206°
2026-05-05 17:27 41.59406 2.98918 14425 ft 321 kts 206°
2026-05-05 17:28 41.57387 2.97698 13954 ft 316 kts 206°
2026-05-05 17:28 41.55395 2.96484 13463 ft 312 kts 206°
2026-05-05 17:28 41.53429 2.95279 12965 ft 309 kts 206°
2026-05-05 17:28 41.51476 2.94077 12469 ft 306 kts 206°
2026-05-05 17:29 41.49576 2.92904 12025 ft 303 kts 206°
2026-05-05 17:29 41.47673 2.91729 11583 ft 300 kts 206°
2026-05-05 17:29 41.45772 2.90556 11144 ft 297 kts 206°
2026-05-05 17:29 41.43908 2.89407 10702 ft 294 kts 206°
2026-05-05 17:30 41.42060 2.88269 10279 ft 291 kts 206°
2026-05-05 17:30 41.40292 2.87049 9870 ft 287 kts 217°
2026-05-05 17:30 41.38903 2.85275 9917 ft 267 kts 226°
2026-05-05 17:30 41.37665 2.83508 9812 ft 255 kts 226°
2026-05-05 17:31 41.36447 2.81764 9464 ft 253 kts 226°
2026-05-05 17:31 41.35249 2.80055 9203 ft 249 kts 226°
2026-05-05 17:31 41.34073 2.78383 9044 ft 247 kts 226°
2026-05-05 17:31 41.32889 2.76704 8884 ft 248 kts 226°
2026-05-05 17:32 41.31720 2.75049 8726 ft 249 kts 226°
2026-05-05 17:32 41.30528 2.73364 8567 ft 250 kts 227°
2026-05-05 17:32 41.29332 2.71676 8416 ft 251 kts 227°
2026-05-05 17:32 41.28124 2.69975 8257 ft 252 kts 227°
2026-05-05 17:33 41.26918 2.68277 8098 ft 253 kts 227°
2026-05-05 17:33 41.25845 2.66433 7906 ft 254 kts 246°
2026-05-05 17:33 41.25385 2.64170 7785 ft 254 kts 262°
2026-05-05 17:33 41.25285 2.61823 7634 ft 255 kts 267°
2026-05-05 17:34 41.25242 2.59492 7479 ft 256 kts 267°
2026-05-05 17:34 41.25190 2.57118 7312 ft 256 kts 266°
2026-05-05 17:34 41.25127 2.54742 7145 ft 256 kts 266°
2026-05-05 17:34 41.25063 2.52393 6980 ft 252 kts 266°
2026-05-05 17:35 41.24994 2.50084 6821 ft 249 kts 266°
2026-05-05 17:35 41.24923 2.47782 6664 ft 248 kts 266°
2026-05-05 17:35 41.24856 2.45560 6499 ft 240 kts 268°
2026-05-05 17:35 41.25215 2.43443 6414 ft 234 kts 296°
2026-05-05 17:36 41.26226 2.41783 6309 ft 234 kts 317°
2026-05-05 17:36 41.27638 2.40667 6191 ft 238 kts 331°
2026-05-05 17:36 41.29165 2.39744 6023 ft 242 kts 333°
2026-05-05 17:36 41.30802 2.39179 5793 ft 248 kts 358°
2026-05-05 17:37 41.32418 2.39795 5715 ft 247 kts 30°
2026-05-05 17:37 41.33282 2.40840 5588 ft 251 kts 52°
2026-05-05 17:37 41.34377 2.43555 5415 ft 254 kts 65°
2026-05-05 17:37 41.35096 2.45720 5232 ft 254 kts 66°
2026-05-05 17:38 41.35791 2.47861 5057 ft 251 kts 66°
2026-05-05 17:38 41.36496 2.49980 4900 ft 249 kts 65°
2026-05-05 17:38 41.37203 2.52075 4736 ft 248 kts 65°
2026-05-05 17:38 41.37911 2.54161 4576 ft 246 kts 65°
2026-05-05 17:39 41.38609 2.56209 4417 ft 245 kts 65°
2026-05-05 17:39 41.39314 2.58276 4262 ft 244 kts 65°
2026-05-05 17:39 41.40018 2.60338 4110 ft 243 kts 65°
2026-05-05 17:39 41.40727 2.62388 3963 ft 242 kts 61°
2026-05-05 17:40 41.41848 2.64002 3834 ft 236 kts 25°
2026-05-05 17:40 41.43403 2.64498 3813 ft 231 kts 354°
2026-05-05 17:40 41.44929 2.63903 3730 ft 230 kts 325°
2026-05-05 17:40 41.46034 2.62463 3643 ft 222 kts 299°
2026-05-05 17:41 41.46578 2.60612 3570 ft 209 kts 282°
2026-05-05 17:41 41.46759 2.58738 3444 ft 201 kts 261°
2026-05-05 17:41 41.46278 2.57037 3422 ft 194 kts 248°
2026-05-05 17:41 41.45765 2.55347 3328 ft 199 kts 249°
2026-05-05 17:42 41.45252 2.53614 3260 ft 202 kts 250°
2026-05-05 17:42 41.44761 2.51889 3171 ft 200 kts 249°
2026-05-05 17:42 41.44229 2.50182 3105 ft 198 kts 248°
2026-05-05 17:42 41.43676 2.48507 3024 ft 192 kts 247°
2026-05-05 17:43 41.43148 2.46949 2952 ft 177 kts 247°
2026-05-05 17:43 41.42664 2.45538 2868 ft 161 kts 246°
2026-05-05 17:43 41.42213 2.44229 2817 ft 153 kts 247°
2026-05-05 17:43 41.41774 2.42956 2763 ft 149 kts 246°
2026-05-05 17:44 41.41340 2.41699 2711 ft 149 kts 247°
2026-05-05 17:44 41.40903 2.40429 2666 ft 152 kts 246°
2026-05-05 17:44 41.40460 2.39148 2602 ft 152 kts 247°
2026-05-05 17:44 41.40021 2.37874 2558 ft 151 kts 247°
2026-05-05 17:45 41.39588 2.36618 2488 ft 151 kts 246°
2026-05-05 17:45 41.39148 2.35344 2379 ft 152 kts 247°
2026-05-05 17:45 41.38711 2.34076 2323 ft 149 kts 246°
2026-05-05 17:45 41.38282 2.32829 2350 ft 148 kts 247°
2026-05-05 17:46 41.37843 2.31555 2306 ft 151 kts 247°
2026-05-05 17:46 41.37410 2.30298 2331 ft 149 kts 246°
2026-05-05 17:46 41.36989 2.29077 2338 ft 140 kts 246°
2026-05-05 17:46 41.36596 2.27934 2301 ft 129 kts 247°
2026-05-05 17:47 41.36239 2.26898 2315 ft 123 kts 248°
2026-05-05 17:47 41.35873 2.25829 2329 ft 127 kts 247°
2026-05-05 17:47 41.35514 2.24788 2308 ft 120 kts 248°
2026-05-05 17:47 41.35165 2.23770 2236 ft 127 kts 247°
2026-05-05 17:48 41.34795 2.22694 2057 ft 125 kts 248°
2026-05-05 17:48 41.34437 2.21651 1899 ft 124 kts 247°
2026-05-05 17:48 41.34082 2.20620 1739 ft 119 kts 248°
2026-05-05 17:48 41.33741 2.19622 1591 ft 118 kts 247°
2026-05-05 17:49 41.33386 2.18592 1404 ft 122 kts 248°
2026-05-05 17:49 41.33042 2.17584 1258 ft 125 kts 247°
2026-05-05 17:49 41.32674 2.16513 1080 ft 128 kts 247°
2026-05-05 17:49 41.32316 2.15470 895 ft 121 kts 248°
2026-05-05 17:50 41.31965 2.14445 751 ft 122 kts 248°
2026-05-05 17:50 41.31612 2.13415 587 ft 120 kts 245°
2026-05-05 17:50 41.31263 2.12396 419 ft 122 kts 246°
2026-05-05 17:50 41.30900 2.11335 246 ft 125 kts 245°
2026-05-05 17:51 41.30543 2.10280 74 ft 124 kts 244°
2026-05-05 17:51 41.30191 2.09272 16 ft 112 kts 243°
2026-05-05 17:51 41.29929 2.08505 23 ft 71 kts 244°
2026-05-05 17:51 41.29784 2.08081 18 ft 33 kts 242°
2026-05-05 17:52 41.29635 2.07871 16 ft 24 kts 217°
2026-05-05 17:52 41.29534 2.07868 16 ft 15 kts 103°
2026-05-05 17:52 41.29572 2.07995 15 ft 15 kts 65°
2026-05-05 17:52 41.29613 2.08116 17 ft 14 kts 65°
2026-05-05 17:53 41.29610 2.08231 16 ft 14 kts 139°
2026-05-05 17:53 41.29526 2.08282 15 ft 13 kts 157°
2026-05-05 17:53 41.29445 2.08332 17 ft 13 kts 154°
2026-05-05 17:53 41.29366 2.08380 19 ft 12 kts 156°
2026-05-05 17:54 41.29288 2.08427 19 ft 12 kts 155°
2026-05-05 17:54 41.29210 2.08449 19 ft 12 kts 192°
2026-05-05 17:54 41.29133 2.08416 19 ft 11 kts 198°
2026-05-05 17:54 41.29060 2.08377 20 ft 11 kts 217°
2026-05-05 17:55 41.29025 2.08288 18 ft 11 kts 245°
2026-05-05 17:55 41.28994 2.08198 19 ft 11 kts 245°
2026-05-05 17:55 41.28969 2.08109 18 ft 10 kts 274°
2026-05-05 17:55 41.29013 2.08059 18 ft 6 kts 336°
2026-05-05 17:56 41.29033 2.08047 20 ft 0 kts 335°